DW2659 Weather Reports


Display with metric or nautical units.
time (UTC)temp
F
wind
direction
speed
MPH
gust
MPH
rain 1hr
in
rain 24hr
in
rain mn
in
humidity
%
barometer
mb
20260504050403 56 180 0.0 0.0 0.00 0.00 0.00 55 1017.4
20260504045908 56 180 1.0 1.0 0.00 0.00 0.00 53 1017.5
20260504045403 57 252 1.0 2.0 0.00 0.00 0.00 52 1017.5
20260504044903 57 251 2.0 3.0 0.00 0.00 0.00 50 1017.5
20260504044403 57 264 0.0 3.0 0.00 0.00 0.00 51 1017.5
20260504043904 58 246 1.0 3.0 0.00 0.00 0.00 50 1017.5
20260504042903 58 250 2.0 3.0 0.00 0.00 0.00 48 1017.5
20260504042403 58 251 2.0 3.0 0.00 0.00 0.00 47 1017.5
20260504041402 58 260 2.0 3.0 0.00 0.00 0.00 47 1017.4
20260504040903 58 265 1.0 3.0 0.00 0.00 0.00 49 1017.4
20260504040403 58 250 2.0 3.0 0.00 0.00 0.00 50 1017.4
20260504034903 58 236 3.0 6.0 0.00 0.00 0.00 49 1017.4
20260504034403 58 232 2.0 3.0 0.00 0.00 0.00 49 1017.4
20260504033904 58 238 2.0 6.0 0.00 0.00 0.00 50 1017.2
20260504033402 58 252 1.0 3.0 0.00 0.00 0.00 51 1017.2
20260504032903 58 256 2.0 3.0 0.00 0.00 0.00 51 1017.0
20260504032404 58 253 2.0 3.0 0.00 0.00 0.00 50 1017.0
20260504031903 58 291 0.0 2.0 0.00 0.00 0.00 50 1017.0
20260504031403 58 231 2.0 3.0 0.00 0.00 0.00 50 1017.0
20260504030903 59 260 1.0 3.0 0.00 0.00 0.00 50 1016.9
20260504030403 59 256 2.0 7.0 0.00 0.00 0.00 49 1016.9
20260504025903 59 201 2.0 5.0 0.00 0.00 0.00 50 1017.0
20260504025403 59 248 2.0 3.0 0.00 0.00 0.00 49 1017.0
20260504024903 59 250 2.0 3.0 0.00 0.00 0.00 50 1017.0
20260504024403 59 229 1.0 2.0 0.00 0.00 0.00 51 1017.0
20260504023904 59 225 1.0 3.0 0.00 0.00 0.00 50 1017.0
20260504022903 59 243 1.0 3.0 0.00 0.00 0.00 50 1017.1
20260504022404 58 236 2.0 3.0 0.00 0.00 0.00 51 1017.1
20260504021903 57 252 2.0 3.0 0.00 0.00 0.00 54 1017.1
20260504020904 52 252 1.0 3.0 0.00 0.00 0.00 68 1016.9
20260504020402 52 267 0.0 1.0 0.00 0.00 0.00 68 1016.9
20260504015903 52 267 0.0 0.0 0.00 0.00 0.00 67 1016.7
20260504015403 52 267 0.0 0.0 0.00 0.00 0.00 66 1016.7
20260504014903 52 267 0.0 0.0 0.00 0.00 0.00 65 1016.7
20260504014402 53 267 0.0 0.0 0.00 0.00 0.00 64 1016.6
20260504013904 53 267 0.0 0.0 0.00 0.00 0.00 64 1016.6
20260504013403 53 267 0.0 0.0 0.00 0.00 0.00 64 1016.6
20260504012902 53 267 0.0 0.0 0.00 0.00 0.00 63 1016.6
20260504012404 54 267 0.0 0.0 0.00 0.00 0.00 63 1016.6
20260504011903 54 267 0.0 0.0 0.00 0.00 0.00 62 1016.6
20260504011403 54 267 0.0 0.0 0.00 0.00 0.00 61 1016.6
20260504010903 55 267 0.0 0.0 0.00 0.00 0.00 60 1016.6
20260504010403 55 267 0.0 0.0 0.00 0.00 0.00 60 1016.6
20260504005903 55 267 0.0 0.0 0.00 0.00 0.00 59 1016.3
20260504005404 56 267 0.0 0.0 0.00 0.00 0.00 58 1016.3
20260504004903 56 267 0.0 0.0 0.00 0.00 0.00 57 1016.3
20260504004402 57 267 0.0 0.0 0.00 0.00 0.00 57 1016.3
20260504003904 57 267 0.0 0.0 0.00 0.00 0.00 56 1016.3
20260504003403 58 267 0.0 0.0 0.00 0.00 0.00 55 1016.3
20260504002903 58 267 0.0 0.0 0.00 0.00 0.00 55 1016.2
20260504002404 58 267 0.0 0.0 0.00 0.00 0.00 55 1016.2
20260504001903 59 267 0.0 0.0 0.00 0.00 0.00 54 1016.2
20260504001403 59 267 0.0 0.0 0.00 0.00 0.00 53 1016.2
20260504000904 60 267 0.0 0.0 0.00 0.00 0.00 53 1016.2
20260504000403 60 267 0.0 0.0 0.00 0.00 0.00 53 1016.2
20260503235903 60 267 0.0 1.0 0.00 0.00 0.00 52 1016.2
20260503235404 60 267 0.0 1.0 0.00 0.00 0.00 51 1016.3
20260503234903 60 267 1.0 2.0 0.00 0.00 0.00 48 1016.3
20260503234403 60 267 0.0 2.0 0.00 0.00 0.00 51 1016.2
20260503233904 61 269 0.0 2.0 0.00 0.00 0.00 47 1016.2
20260503233402 61 241 1.0 3.0 0.00 0.00 0.00 46 1016.2
20260503232903 61 249 1.0 2.0 0.00 0.00 0.00 51 1016.2
20260503232404 62 302 0.0 2.0 0.00 0.00 0.00 50 1016.3
20260503231903 63 302 0.0 1.0 0.00 0.00 0.00 50 1016.3
20260503231403 63 313 1.0 2.0 0.00 0.00 0.00 49 1016.4
20260503230905 64 334 2.0 3.0 0.00 0.00 0.00 41 1016.3
20260503225903 65 42 0.0 0.0 0.00 0.00 0.00 41 1016.4
20260503225404 66 42 1.0 2.0 0.00 0.00 0.00 43 1016.3
20260503224903 66 55 1.0 3.0 0.00 0.00 0.00 43 1016.4
20260503224403 67 89 1.0 2.0 0.00 0.00 0.00 36 1016.4
20260503223904 67 32 0.0 3.0 0.00 0.00 0.00 39 1016.4
20260503223403 67 202 0.0 3.0 0.00 0.00 0.00 34 1016.4
20260503222903 67 236 2.0 3.0 0.00 0.00 0.00 33 1016.4
20260503222404 68 182 2.0 8.0 0.00 0.00 0.00 33 1016.4
20260503221403 68 217 2.0 5.0 0.00 0.00 0.00 34 1016.5
20260503220904 68 265 2.0 7.0 0.00 0.00 0.00 34 1016.5
20260503220403 68 209 1.0 6.0 0.00 0.00 0.00 34 1016.5
20260503215903 68 74 1.0 3.0 0.00 0.00 0.00 33 1016.6
20260503215404 69 101 1.0 2.0 0.00 0.00 0.00 34 1016.8
20260503214403 69 189 3.0 5.0 0.00 0.00 0.00 32 1016.9
20260503213403 68 199 3.0 7.0 0.00 0.00 0.00 34 1017.0
20260503212903 68 215 1.0 5.0 0.00 0.00 0.00 34 1017.2
20260503211403 69 174 1.0 3.0 0.00 0.00 0.00 35 1017.3
20260503210905 70 54 1.0 3.0 0.00 0.00 0.00 33 1017.3
20260503210403 69 237 2.0 5.0 0.00 0.00 0.00 34 1017.3
20260503205904 69 177 3.0 5.0 0.00 0.00 0.00 34 1017.5
20260503205405 69 274 2.0 5.0 0.00 0.00 0.00 34 1017.5
20260503204903 69 97 2.0 6.0 0.00 0.00 0.00 34 1017.5
20260503204403 69 300 1.0 3.0 0.00 0.00 0.00 35 1017.5
20260503203904 69 75 2.0 6.0 0.00 0.00 0.00 35 1017.5
20260503203403 68 183 1.0 2.0 0.00 0.00 0.00 35 1017.6
20260503202903 68 5 2.0 5.0 0.00 0.00 0.00 37 1018.0
20260503202404 68 227 3.0 7.0 0.00 0.00 0.00 34 1018.0
20260503201903 68 232 3.0 5.0 0.00 0.00 0.00 34 1018.0
20260503201403 68 278 3.0 9.0 0.00 0.00 0.00 33 1018.3
20260503200904 69 227 3.0 8.0 0.00 0.00 0.00 34 1018.3
20260503195903 68 215 2.0 7.0 0.00 0.00 0.00 34 1018.6
20260503195404 67 200 3.0 10.0 0.00 0.00 0.00 34 1018.6
20260503194903 67 172 4.0 7.0 0.00 0.00 0.00 34 1018.6
20260503194403 67 117 4.0 7.0 0.00 0.00 0.00 35 1018.8
20260503193904 67 235 3.0 7.0 0.00 0.00 0.00 32 1018.8
20260503193403 67 225 4.0 8.0 0.00 0.00 0.00 33 1018.8
20260503191903 67 224 2.0 6.0 0.00 0.00 0.00 35 1019.2
20260503191403 67 73 2.0 5.0 0.00 0.00 0.00 36 1019.2
20260503190904 67 45 2.0 5.0 0.00 0.00 0.00 38 1019.2
20260503190403 67 1 2.0 3.0 0.00 0.00 0.00 38 1019.2
20260503184903 66 226 3.0 5.0 0.00 0.00 0.00 36 1019.3
20260503184403 66 252 2.0 8.0 0.00 0.00 0.00 38 1019.4
20260503183904 65 183 2.0 3.0 0.00 0.00 0.00 37 1019.4
20260503183403 65 250 2.0 6.0 0.00 0.00 0.00 37 1019.4
20260503182903 65 149 2.0 5.0 0.00 0.00 0.00 36 1019.5
20260503182405 66 267 1.0 3.0 0.00 0.00 0.00 36 1019.5
20260503181403 65 50 2.0 5.0 0.00 0.00 0.00 44 1019.7
20260503180905 64 138 5.0 9.0 0.00 0.00 0.00 37 1019.7
20260503180404 65 185 5.0 7.0 0.00 0.00 0.00 37 1019.7
20260503175404 65 131 3.0 6.0 0.00 0.00 0.00 38 1020.1
20260503174903 65 246 2.0 7.0 0.00 0.00 0.00 39 1020.1
20260503174403 64 229 2.0 7.0 0.00 0.00 0.00 37 1020.1
20260503173904 65 50 3.0 6.0 0.00 0.00 0.00 40 1020.1
20260503173404 65 17 2.0 3.0 0.00 0.00 0.00 41 1020.1
20260503172404 64 225 1.0 3.0 0.00 0.00 0.00 42 1020.4
20260503171903 64 101 2.0 5.0 0.00 0.00 0.00 40 1020.4
20260503171404 63 225 3.0 7.0 0.00 0.00 0.00 40 1020.4
20260503170905 64 247 2.0 3.0 0.00 0.00 0.00 40 1020.4
20260503170403 63 54 2.0 5.0 0.00 0.00 0.00 44 1020.4
20260503150905 60 66 3.0 3.0 0.00 0.00 0.00 49 1021.2
20260503150403 60 35 3.0 6.0 0.00 0.00 0.00 48 1021.2
20260503131403 53 49 1.0 3.0 0.00 0.00 0.00 68 1020.8
20260503130905 52 58 1.0 3.0 0.00 0.00 0.00 70 1020.8
20260503130404 51 47 0.0 3.0 0.00 0.00 0.00 72 1020.8
20260503110404 42 181 0.0 0.0 0.00 0.00 0.00 83 1019.9
20260503081405 44 102 0.0 1.0 0.00 0.00 0.00 80 1018.3
20260503080404 44 102 0.0 0.0 0.00 0.00 0.00 79 1018.3
20260503072905 45 102 0.0 0.0 0.00 0.00 0.00 77 1018.2
20260503071905 45 102 0.0 0.0 0.00 0.00 0.00 77 1018.0
20260503071405 45 102 0.0 0.0 0.00 0.00 0.00 77 1018.0
20260503070904 45 102 0.0 0.0 0.00 0.00 0.00 76 1018.0
20260503070404 45 102 0.0 0.0 0.00 0.00 0.00 75 1018.0